Miscellaneous Local Product
Issued by NWS North Platte, NE

Home | Current Version | Previous Version | Text Only | Print | Product List | Glossary On
Versions: 1 2 3 4 5 6 7 8 9 10 11 12 13 14 15 16 17 18 19 20 21 22 23 24 25 26 27 28 29 30 31 32 33 34 35 36 37 38 39 40 41 42 43 44 45 46 47 48 49 50
130
AXUS43 KLBF 091910
MISLBF


WESTERN AND NORTH CENTRAL NEBRASKA HOURLY WEATHER ROUNDUP
NATIONAL WEATHER SERVICE NORTH PLATTE NE
100 PM CST FRI DEC 09 2016

NOTE: "FAIR" INDICATES FEW OR NO CLOUDS BELOW 12,000 FEET WITH NO
SIGNIFICANT WEATHER AND/OR OBSTRUCTIONS TO VISIBILITY.

NOTE: STATIONS NOT REPORTING VARIABLES SUCH AS SKY/WEATHER OR
PRESSURE ARE PROVIDED BY RAWS AND APRS NETWORKS AND ARE NOT UNDER
NATIONAL WEATHER SERVICE QUALITY CONTROL.

...OBSERVATIONS IN AND NEAR THE EASTERN PANHANDLE OF NEBRASKA...

CITY           SKY/WX    TMP DP  RH WIND       PRES   REMARKS
PINE RIDGE     CLOUDY     6   2  83 NW6       30.29F WCI  -4
CHADRON        CLOUDY     8  -1  66 VRB5      30.31F WCI   0
ALLIANCE       SUNNY     22   9  57 N8        30.18S WCI  12
SIDNEY         SUNNY     26  13  57 VRB5      30.13F WCI  20
CRESCENT LAKE    N/A     24   9  53 NE3         N/A
$$

...OBSERVATIONS IN NORTHERN NEBRASKA AND FAR SOUTHERN SOUTH DAKOTA...

CITY           SKY/WX    TMP DP  RH WIND       PRES   REMARKS
WINNER         LGT SNOW  12   7  80 E8        30.41F WCI   0
VALENTINE      CLOUDY    18   7  62 S9        30.33F WCI   7
THEDFORD       CLOUDY    24   8  52 S10       30.28F WCI  13
AINSWORTH      CLOUDY    17   8  65 S6        30.34R WCI   9
O`NEILL        FLURRIES  18   9  67 SE7       30.41F WCI   9
BROKEN BOW     CLOUDY    21   8  57 S14       30.31F WCI   8
VALENTINE NWR    N/A     16   5  60 S10         N/A  WCI   4
BUTTE            N/A     10   6  84 E8          N/A  WCI  -2
HALSEY           N/A     21   5  50 S8G17       N/A  WCI  11
CHAMBERS         N/A     19   6  57 S3          N/A
EWING            N/A     16   9  73 S3          N/A
$$

...OBSERVATIONS IN SOUTHWEST NEBRASKA AND FAR NORTHEAST COLORADO...

CITY           SKY/WX    TMP DP  RH WIND       PRES   REMARKS
WRAY           FAIR      30  18  59 SW3       30.18F
HOLYOKE        FAIR      30  16  55 SW8       30.18S WCI  23
IMPERIAL       PTSUNNY   24  15  68 S14       30.20F WCI  12
OGALLALA       SUNNY     26  15  63 SW9       30.21F WCI  16
NORTH PLATTE   SUNNY     24  11  57 S14       30.26F WCI  12
MCCOOK         CLOUDY    26  14  60 S12       30.28F WCI  16
LEXINGTON      CLOUDY    23  11  61 S16       30.31F WCI  10
STAPLETON        N/A     24  11  57 CALM        N/A
GOTHENBURG       N/A     22  11  62 S10         N/A  WCI  11
CALLAWAY         N/A     22  11  63 S12         N/A  WCI  11
$$

...OBSERVATIONS IN CENTRAL LINCOLN COUNTY AREA...

CITY           SKY/WX    TMP DP  RH WIND       PRES   REMARKS
N.P. AIRPORT   SUNNY     24  11  57 S14       30.26F WCI  12
N.P. DOWNTOWN    N/A     23  13  65 S5G12       N/A  WCI  17
N.P. SOUTHEAST   N/A     22  12  64 S8          N/A  WCI  13
N.P. HILLCREST   N/A     23  13  67 S10G17      N/A  WCI  12
$$

...SOME OBSERVATIONS FROM AROUND THE REGION...

CITY           SKY/WX    TMP DP  RH WIND       PRES   REMARKS
LARAMIE        CLOUDY    35  22  58 W18G28    30.08F WCI  24
CHEYENNE       SUNNY     44  24  45 W21G30    30.05S
DENVER         MOSUNNY   50  26  39 W5        30.07F
AKRON          SUNNY     24  12  60 W6        30.11F WCI  17
SCOTTSBLUFF    SUNNY     26  11  52 N9        30.17F WCI  17
RAPID CITY     LGT SNOW   3  -3  76 N9        30.34F WCI -12
BISMARCK       CLOUDY     0  -6  76 NW9       30.56F WCI -15
PIERRE         LGT SNOW   5  -1  76 NE9       30.48F VSB 1   WCI  -9
SIOUX FALLS    CLOUDY    14   5  67 CALM      30.51F
OMAHA          CLOUDY    19   8  62 S5        30.56F WCI  12
GRAND ISLAND   CLOUDY    20  11  68 SE15      30.42F WCI   6
KANSAS CITY    CLOUDY    24  11  57 SE5       30.57F WCI  18
WICHITA        CLOUDY    27  12  53 SE13      30.50F WCI  16
OKLAHOMA CITY  CLOUDY    30  11  45 SE9       30.52F WCI  22
DALLAS         CLOUDY    36  12  37 CALM      30.57F
AMARILLO       CLOUDY    36  26  67 S21       30.26F WCI  25
DODGE CITY     CLOUDY    30  13  49 S21       30.32F WCI  17
HAYS           CLOUDY    26  12  55 S16       30.38F WCI  14
GOODLAND       SUNNY     30  20  66 S18       30.17F WCI  18
$$




USA.gov is the U.S. government's official web portal to all federal, state and local government web resources and services.